Location: McFarlands Corners
(41.4117°N, 81.3382°W)
Time: 20:58:36
(UTC+00:00)

SR - Pass Details

Date: 16 February 2026
Orbit: 573 x 848 km, 66.7° (Epoch: 6 March)

Event Time Altitude Azimuth Distance (km) Brightness Sun altitude
Rises 18:11:49 0° 338° (NNW) 3,061 ? 35.9°
Reaches altitude 10° 18:14:18 10° 348° (NNW) 2,189 ? 35.8°
Maximum altitude 18:18:49 32° 52° (NE) 1,256 ? 35.7°
Drops below altitude 10° 18:23:36 10° 115° (ESE) 2,339 ? 35.5°
Sets 18:26:20 0° 125° (SE) 3,305 ? 35.4°
